QPF
0.03 0.03 0.04 0.04 0.03 0.02 0.02 0.02 0.01 0.01 0.03 0.02 0.02 0.03 0.03 0.03 0.03 0.04 0.05 0.06 0.05 0.05 0.06 0.05 0.06 0.05 0.05 0.04 0.04 0.03 0.02 0.02 0.01 0.01 0.01 0.01 0.01 0.01 0.01 0.00 0.00 0.00 0.00
0.03 0.03 0.03 0.04 0.03 0.02 0.03 0.02 0.01 0.02 0.03 0.05 0.04 0.05 0.06 0.05 0.04 0.03 0.04 0.05 0.05 0.04 0.05 0.05 0.06 0.05 0.06 0.06 0.04 0.04 0.03 0.02 0.02 0.01 0.01 0.01 0.01 0.01 0.01 0.01 0.01 0.01 0.00
0.04 0.04 0.04 0.04 0.04 0.04 0.04 0.02 0.02 0.02 0.03 0.04 0.07 0.07 0.09 0.07 0.05 0.03 0.03 0.05 0.05 0.04 0.05 0.05 0.05 0.05 0.06 0.06 0.05 0.05 0.05 0.04 0.03 0.01 0.01 0.01 0.01 0.01 0.01 0.01 0.01 0.01 0.00
0.05 0.05 0.05 0.03 0.03 0.03 0.03 0.03 0.03 0.03 0.04 0.05 0.07 0.09 0.07 0.07 0.05 0.05 0.04 0.05 0.05 0.04 0.06 0.04 0.04 0.04 0.05 0.05 0.07 0.07 0.07 0.06 0.05 0.03 0.02 0.01 0.01 0.01 0.01 0.01 0.01 0.01 0.00
0.05 0.06 0.05 0.04 0.02 0.02 0.03 0.02 0.03 0.03 0.04 0.06 0.07 0.08 0.05 0.05 0.05 0.04 0.05 0.03 0.03 0.04 0.05 0.04 0.03 0.03 0.04 0.05 0.09 0.10 0.10 0.07 0.05 0.04 0.03 0.02 0.02 0.02 0.02 0.01 0.01 0.01 0.01
0.05 0.06 0.06 0.04 0.02 0.02 0.03 0.03 0.04 0.03 0.04 0.07 0.05 0.05 0.04 0.03 0.04 0.04 0.04 0.03 0.03 0.02 0.02 0.02 0.03 0.02 0.02 0.03 0.06 0.07 0.06 0.06 0.06 0.04 0.03 0.03 0.04 0.04 0.03 0.01 0.01 0.01 0.01
0.04 0.06 0.06 0.06 0.04 0.03 0.04 0.03 0.03 0.04 0.04 0.06 0.07 0.07 0.06 0.03 0.03 0.04 0.04 0.03 0.03 0.02 0.02 0.03 0.04 0.04 0.03 0.02 0.02 0.03 0.04 0.06 0.07 0.06 0.04 0.03 0.04 0.04 0.03 0.02 0.02 0.02 0.02
0.04 0.04 0.06 0.07 0.05 0.05 0.05 0.03 0.03 0.04 0.04 0.04 0.05 0.06 0.06 0.05 0.03 0.02 0.03 0.03 0.03 0.03 0.03 0.02 0.03 0.04 0.04 0.02 0.01 0.01 0.02 0.04 0.06 0.07 0.05 0.04 0.04 0.04 0.03 0.03 0.02 0.02 0.02
0.05 0.04 0.04 0.06 0.05 0.05 0.05 0.04 0.03 0.04 0.04 0.03 0.04 0.04 0.04 0.04 0.04 0.02 0.01 0.01 0.02 0.03 0.02 0.02 0.01 0.01 0.02 0.01 0.01 0.01 0.01 0.02 0.03 0.05 0.06 0.05 0.04 0.03 0.02 0.02 0.02 0.02 0.02
0.04 0.04 0.04 0.05 0.05 0.04 0.04 0.03 0.02 0.03 0.04 0.03 0.03 0.02 0.02 0.02 0.03 0.03 0.01 0.01 0.01 0.01 0.01 0.01 0.01 0.01 0.01 0.01 0.01 0.00 0.00 0.01 0.02 0.03 0.04 0.04 0.04 0.03 0.03 0.03 0.03 0.03 0.02
0.05 0.05 0.05 0.05 0.05 0.03 0.02 0.02 0.02 0.03 0.03 0.03 0.03 0.02 0.02 0.02 0.02 0.03 0.03 0.02 0.01 0.00 0.01 0.01 0.01 0.00 0.00 0.01 0.02 0.01 0.00 0.00 0.00 0.01 0.02 0.02 0.03 0.03 0.03 0.03 0.03 0.04 0.04
0.05 0.04 0.05 0.05 0.04 0.03 0.02 0.02 0.03 0.03 0.03 0.04 0.03 0.02 0.02 0.03 0.02 0.02 0.02 0.02 0.02 0.01 0.00 0.00 0.00 0.00 0.00 0.01 0.00 0.00 0.00 0.00 0.00 0.00 0.01 0.01 0.02 0.02 0.02 0.02 0.03 0.04 0.05
0.04 0.03 0.03 0.04 0.04 0.03 0.03 0.04 0.03 0.02 0.03 0.03 0.03 0.02 0.01 0.01 0.01 0.01 0.01 0.01 0.01 0.01 0.01 0.01 0.00 0.00 0.00 0.00 0.01 0.00 0.00 0.00 0.00 0.00 0.01 0.00 0.00 0.01 0.01 0.01 0.02 0.02 0.03
0.05 0.03 0.03 0.03 0.03 0.03 0.03 0.04 0.04 0.03 0.02 0.03 0.02 0.02 0.02 0.01 0.01 0.01 0.01 0.01 0.01 0.02 0.01 0.01 0.00 0.00 0.00 0.00 0.01 0.00 0.00 0.00 0.00 0.00 0.00 0.00 0.00 0.00 0.00 0.00 0.00 0.00 0.01
0.04 0.03 0.02 0.03 0.03 0.04 0.03 0.04 0.03 0.02 0.02 0.02 0.02 0.03 0.02 0.02 0.02 0.01 0.01 0.01 0.02 0.02 0.02 0.02 0.01 0.00 0.00 0.00 0.01 0.01 0.01 0.00 0.00 0.00 0.00 0.00 0.00 0.00 0.00 0.00 0.00 0.00 0.00
0.04 0.04 0.03 0.04 0.05 0.05 0.04 0.05 0.04 0.03 0.03 0.03 0.03 0.03 0.02 0.02 0.02 0.02 0.01 0.01 0.02 0.02 0.02 0.01 0.01 0.01 0.00 0.00 0.00 0.00 0.00 0.00 0.00 0.00 0.00 0.00 0.00 0.00 0.00 0.00 0.00 0.00 0.00
0.05 0.07 0.07 0.06 0.07 0.07 0.07 0.07 0.07 0.06 0.05 0.05 0.04 0.04 0.04 0.04 0.04 0.04 0.03 0.02 0.02 0.02 0.02 0.02 0.02 0.02 0.02 0.02 0.01 0.01 0.01 0.01 0.01 0.00 0.00 0.00 0.00 0.00 0.00 0.00 0.00 0.00 0.00
0.08 0.09 0.10 0.09 0.11 0.12 0.09 0.06 0.05 0.05 0.05 0.04 0.03 0.04 0.04 0.04 0.05 0.05 0.05 0.04 0.04 0.03 0.03 0.04 0.05 0.05 0.04 0.02 0.02 0.02 0.01 0.01 0.01 0.01 0.00 0.00 0.00 0.00 0.00 0.00 0.00 0.00 0.00
0.10 0.09 0.10 0.10 0.11 0.10 0.08 0.07 0.06 0.06 0.05 0.05 0.05 0.05 0.05 0.05 0.05 0.05 0.06 0.06 0.05 0.04 0.05 0.06 0.06 0.05 0.03 0.02 0.02 0.03 0.02 0.02 0.01 0.00 0.00 0.00 0.00 0.00 0.00 0.00 0.00 0.00 0.00
0.08 0.10 0.10 0.10 0.10 0.10 0.09 0.07 0.06 0.06 0.07 0.07 0.07 0.07 0.05 0.04 0.05 0.06 0.07 0.07 0.07 0.07 0.07 0.06 0.06 0.06 0.05 0.03 0.03 0.03 0.03 0.03 0.03 0.01 0.01 0.01 0.01 0.01 0.00 0.00 0.00 0.00 0.00
0.11 0.12 0.14 0.13 0.13 0.13 0.13 0.12 0.10 0.10 0.10 0.09 0.08 0.07 0.05 0.04 0.04 0.04 0.04 0.07 0.08 0.09 0.09 0.10 0.10 0.09 0.08 0.06 0.05 0.04 0.04 0.05 0.04 0.03 0.03 0.03 0.03 0.03 0.04 0.03 0.02 0.02 0.01
0.21 0.19 0.18 0.17 0.17 0.16 0.17 0.15 0.12 0.11 0.09 0.08 0.08 0.06 0.05 0.04 0.04 0.04 0.04 0.04 0.05 0.06 0.08 0.09 0.09 0.08 0.06 0.05 0.05 0.04 0.04 0.04 0.05 0.02 0.02 0.03 0.02 0.03 0.03 0.04 0.03 0.02 0.02
0.26 0.28 0.27 0.26 0.22 0.19 0.18 0.15 0.14 0.11 0.10 0.10 0.09 0.07 0.06 0.05 0.06 0.05 0.05 0.05 0.05 0.05 0.05 0.05 0.04 0.04 0.03 0.04 0.04 0.04 0.04 0.04 0.03 0.02 0.02 0.02 0.02 0.02 0.02 0.02 0.03 0.02 0.01
0.21 0.21 0.21 0.21 0.21 0.22 0.21 0.19 0.17 0.14 0.13 0.12 0.10 0.09 0.08 0.07 0.06 0.05 0.05 0.04 0.04 0.04 0.04 0.03 0.04 0.04 0.04 0.03 0.03 0.03 0.03 0.03 0.03 0.02 0.01 0.01 0.01 0.01 0.01 0.01 0.01 0.01 0.01
0.11 0.11 0.14 0.16 0.17 0.20 0.21 0.19 0.18 0.15 0.15 0.14 0.14 0.13 0.11 0.09 0.10 0.09 0.07 0.07 0.06 0.05 0.04 0.04 0.04 0.04 0.04 0.03 0.03 0.02 0.02 0.02 0.02 0.02 0.01 0.01 0.01 0.01 0.01 0.01 0.01 0.01 0.01
0.07 0.07 0.08 0.10 0.11 0.13 0.15 0.16 0.17 0.15 0.16 0.16 0.15 0.13 0.13 0.12 0.12 0.10 0.08 0.08 0.07 0.06 0.05 0.04 0.03 0.03 0.02 0.02 0.02 0.02 0.01 0.02 0.02 0.02 0.02 0.02 0.02 0.02 0.02 0.02 0.02 0.01 0.01
MSLP
1016.92 1017.16 1017.31 1017.42 1017.50 1017.58 1017.68 1017.82 1017.98 1018.15 1018.29 1018.41 1018.48 1018.53 1018.59 1018.69 1018.87 1019.15 1019.51 1019.96 1020.44 1020.92 1021.36 1021.71 1021.96 1022.13 1022.23 1022.28 1022.32 1022.37 1022.44 1022.54 1022.65 1022.78 1022.90 1023.03 1023.14 1023.26 1023.38 1023.51 1023.65 1023.78 1023.90
1016.89 1017.15 1017.33 1017.45 1017.53 1017.61 1017.71 1017.84 1018.01 1018.20 1018.38 1018.55 1018.68 1018.79 1018.90 1019.01 1019.18 1019.40 1019.70 1020.06 1020.46 1020.87 1021.26 1021.60 1021.87 1022.07 1022.22 1022.32 1022.40 1022.47 1022.54 1022.63 1022.72 1022.82 1022.92 1023.02 1023.13 1023.25 1023.37 1023.51 1023.65 1023.79 1023.91
1016.82 1017.12 1017.35 1017.51 1017.63 1017.73 1017.85 1017.99 1018.18 1018.38 1018.60 1018.81 1018.99 1019.14 1019.27 1019.39 1019.52 1019.69 1019.90 1020.16 1020.46 1020.77 1021.10 1021.40 1021.67 1021.89 1022.08 1022.23 1022.36 1022.46 1022.56 1022.65 1022.74 1022.82 1022.90 1022.98 1023.07 1023.17 1023.29 1023.42 1023.56 1023.70 1023.83
1016.70 1017.06 1017.35 1017.58 1017.75 1017.90 1018.05 1018.22 1018.42 1018.64 1018.88 1019.11 1019.32 1019.50 1019.64 1019.75 1019.85 1019.95 1020.07 1020.23 1020.41 1020.63 1020.87 1021.12 1021.37 1021.60 1021.82 1022.02 1022.19 1022.35 1022.48 1022.59 1022.68 1022.76 1022.82 1022.89 1022.96 1023.05 1023.15 1023.27 1023.40 1023.54 1023.66
1016.52 1016.94 1017.30 1017.60 1017.84 1018.05 1018.25 1018.44 1018.66 1018.89 1019.13 1019.37 1019.59 1019.78 1019.92 1020.02 1020.09 1020.14 1020.18 1020.24 1020.33 1020.44 1020.60 1020.78 1021.00 1021.23 1021.46 1021.70 1021.92 1022.12 1022.29 1022.43 1022.55 1022.63 1022.70 1022.75 1022.81 1022.88 1022.96 1023.06 1023.18 1023.30 1023.42
1016.30 1016.75 1017.17 1017.54 1017.86 1018.13 1018.37 1018.59 1018.81 1019.04 1019.28 1019.52 1019.74 1019.93 1020.07 1020.17 1020.22 1020.23 1020.22 1020.20 1020.20 1020.24 1020.31 1020.43 1020.60 1020.81 1021.05 1021.30 1021.56 1021.80 1022.01 1022.19 1022.33 1022.43 1022.51 1022.56 1022.61 1022.66 1022.73 1022.81 1022.90 1023.01 1023.12
1016.03 1016.50 1016.96 1017.38 1017.76 1018.08 1018.36 1018.61 1018.85 1019.08 1019.31 1019.53 1019.75 1019.94 1020.09 1020.19 1020.24 1020.23 1020.19 1020.13 1020.07 1020.04 1020.04 1020.10 1020.22 1020.39 1020.61 1020.87 1021.14 1021.41 1021.66 1021.87 1022.04 1022.17 1022.26 1022.32 1022.37 1022.41 1022.46 1022.52 1022.59 1022.68 1022.78
1015.76 1016.22 1016.69 1017.14 1017.56 1017.93 1018.24 1018.52 1018.76 1018.99 1019.22 1019.44 1019.65 1019.84 1020.00 1020.12 1020.18 1020.18 1020.14 1020.06 1019.96 1019.88 1019.83 1019.83 1019.89 1020.02 1020.21 1020.45 1020.72 1020.99 1021.26 1021.50 1021.70 1021.86 1021.97 1022.04 1022.09 1022.13 1022.16 1022.20 1022.26 1022.33 1022.41
1015.49 1015.92 1016.38 1016.85 1017.29 1017.68 1018.03 1018.33 1018.60 1018.84 1019.07 1019.29 1019.50 1019.71 1019.88 1020.02 1020.10 1020.12 1020.09 1020.01 1019.90 1019.79 1019.69 1019.64 1019.65 1019.73 1019.87 1020.07 1020.31 1020.58 1020.85 1021.10 1021.32 1021.50 1021.64 1021.73 1021.79 1021.83 1021.86 1021.88 1021.92 1021.96 1022.02
1015.25 1015.64 1016.07 1016.53 1016.98 1017.40 1017.77 1018.11 1018.40 1018.66 1018.90 1019.14 1019.37 1019.59 1019.78 1019.94 1020.04 1020.09 1020.07 1019.99 1019.88 1019.75 1019.63 1019.53 1019.49 1019.51 1019.60 1019.75 1019.95 1020.19 1020.45 1020.70 1020.93 1021.13 1021.29 1021.40 1021.48 1021.52 1021.55 1021.56 1021.58 1021.60 1021.64
1015.01 1015.37 1015.78 1016.22 1016.67 1017.11 1017.51 1017.87 1018.19 1018.48 1018.76 1019.02 1019.27 1019.51 1019.72 1019.89 1020.01 1020.07 1020.06 1019.99 1019.88 1019.74 1019.59 1019.47 1019.38 1019.35 1019.39 1019.48 1019.64 1019.84 1020.07 1020.31 1020.55 1020.76 1020.93 1021.07 1021.16 1021.22 1021.25 1021.26 1021.26 1021.26 1021.27
1014.76 1015.09 1015.49 1015.92 1016.37 1016.82 1017.24 1017.63 1017.99 1018.33 1018.63 1018.92 1019.20 1019.45 1019.68 1019.86 1019.98 1020.04 1020.04 1019.97 1019.86 1019.71 1019.55 1019.40 1019.29 1019.22 1019.21 1019.26 1019.37 1019.53 1019.73 1019.95 1020.18 1020.39 1020.59 1020.74 1020.86 1020.94 1020.97 1020.98 1020.96 1020.94 1020.91
1014.47 1014.80 1015.19 1015.62 1016.07 1016.52 1016.97 1017.39 1017.78 1018.15 1018.50 1018.82 1019.11 1019.38 1019.61 1019.79 1019.91 1019.96 1019.95 1019.88 1019.76 1019.62 1019.46 1019.30 1019.18 1019.09 1019.05 1019.07 1019.14 1019.26 1019.43 1019.62 1019.84 1020.05 1020.26 1020.43 1020.57 1020.66 1020.71 1020.72 1020.70 1020.65 1020.59
1014.11 1014.46 1014.87 1015.30 1015.76 1016.22 1016.67 1017.11 1017.54 1017.93 1018.31 1018.65 1018.97 1019.24 1019.47 1019.64 1019.75 1019.79 1019.77 1019.70 1019.58 1019.45 1019.30 1019.16 1019.04 1018.95 1018.90 1018.90 1018.94 1019.03 1019.17 1019.34 1019.53 1019.74 1019.94 1020.13 1020.29 1020.40 1020.47 1020.48 1020.45 1020.39 1020.30
1013.68 1014.09 1014.52 1014.97 1015.43 1015.89 1016.35 1016.80 1017.23 1017.65 1018.05 1018.42 1018.74 1019.02 1019.25 1019.40 1019.50 1019.53 1019.50 1019.43 1019.33 1019.21 1019.09 1018.98 1018.89 1018.82 1018.78 1018.77 1018.80 1018.87 1018.97 1019.11 1019.27 1019.46 1019.65 1019.84 1020.01 1020.14 1020.22 1020.25 1020.23 1020.16 1020.06
1013.24 1013.70 1014.17 1014.64 1015.10 1015.56 1016.01 1016.46 1016.89 1017.32 1017.73 1018.11 1018.45 1018.73 1018.96 1019.11 1019.20 1019.22 1019.20 1019.14 1019.06 1018.97 1018.89 1018.83 1018.78 1018.75 1018.73 1018.73 1018.75 1018.79 1018.85 1018.95 1019.07 1019.22 1019.39 1019.57 1019.73 1019.87 1019.97 1020.02 1020.02 1019.96 1019.86
1012.82 1013.35 1013.86 1014.35 1014.81 1015.26 1015.70 1016.13 1016.57 1016.99 1017.41 1017.80 1018.15 1018.45 1018.68 1018.84 1018.93 1018.97 1018.95 1018.91 1018.87 1018.82 1018.79 1018.78 1018.78 1018.79 1018.80 1018.81 1018.82 1018.83 1018.85 1018.89 1018.95 1019.05 1019.17 1019.32 1019.47 1019.60 1019.72 1019.79 1019.81 1019.79 1019.71
1012.50 1013.09 1013.63 1014.14 1014.60 1015.04 1015.47 1015.89 1016.32 1016.75 1017.17 1017.58 1017.95 1018.27 1018.52 1018.70 1018.81 1018.86 1018.87 1018.86 1018.85 1018.85 1018.87 1018.91 1018.96 1019.00 1019.04 1019.05 1019.04 1019.01 1018.98 1018.95 1018.94 1018.97 1019.02 1019.11 1019.23 1019.35 1019.47 1019.56 1019.61 1019.62 1019.58
1012.33 1012.96 1013.53 1014.05 1014.52 1014.96 1015.38 1015.80 1016.23 1016.67 1017.11 1017.54 1017.93 1018.28 1018.56 1018.77 1018.91 1018.99 1019.03 1019.06 1019.09 1019.13 1019.19 1019.27 1019.35 1019.42 1019.47 1019.47 1019.44 1019.36 1019.26 1019.15 1019.06 1018.99 1018.96 1018.98 1019.04 1019.13 1019.24 1019.34 1019.42 1019.46 1019.47
1012.32 1012.98 1013.57 1014.11 1014.59 1015.04 1015.47 1015.90 1016.34 1016.80 1017.27 1017.74 1018.17 1018.56 1018.88 1019.13 1019.30 1019.42 1019.49 1019.55 1019.60 1019.67 1019.76 1019.86 1019.96 1020.04 1020.08 1020.07 1020.00 1019.87 1019.69 1019.50 1019.31 1019.14 1019.02 1018.96 1018.95 1018.98 1019.06 1019.15 1019.24 1019.31 1019.34
1012.48 1013.15 1013.76 1014.32 1014.82 1015.29 1015.74 1016.20 1016.68 1017.18 1017.69 1018.20 1018.68 1019.12 1019.48 1019.77 1019.98 1020.12 1020.22 1020.30 1020.37 1020.45 1020.54 1020.65 1020.75 1020.82 1020.84 1020.80 1020.68 1020.49 1020.25 1019.97 1019.69 1019.43 1019.21 1019.05 1018.96 1018.93 1018.95 1019.01 1019.08 1019.15 1019.20
1012.78 1013.45 1014.07 1014.65 1015.19 1015.69 1016.19 1016.69 1017.22 1017.77 1018.33 1018.89 1019.43 1019.91 1020.32 1020.64 1020.88 1021.05 1021.16 1021.24 1021.31 1021.38 1021.47 1021.55 1021.63 1021.68 1021.67 1021.59 1021.42 1021.19 1020.88 1020.53 1020.17 1019.83 1019.52 1019.27 1019.10 1018.99 1018.94 1018.94 1018.97 1019.00 1019.02
1013.18 1013.85 1014.49 1015.09 1015.67 1016.22 1016.77 1017.33 1017.92 1018.52 1019.14 1019.76 1020.34 1020.86 1021.30 1021.65 1021.91 1022.08 1022.19 1022.26 1022.32 1022.37 1022.42 1022.48 1022.52 1022.53 1022.48 1022.36 1022.16 1021.88 1021.53 1021.13 1020.71 1020.30 1019.93 1019.60 1019.35 1019.16 1019.03 1018.95 1018.90 1018.86 1018.81
1013.68 1014.35 1015.00 1015.63 1016.25 1016.85 1017.46 1018.08 1018.72 1019.38 1020.05 1020.71 1021.32 1021.87 1022.32 1022.68 1022.95 1023.11 1023.21 1023.26 1023.28 1023.30 1023.31 1023.32 1023.32 1023.29 1023.20 1023.05 1022.82 1022.51 1022.13 1021.71 1021.25 1020.81 1020.38 1020.00 1019.68 1019.41 1019.20 1019.03 1018.88 1018.73 1018.58
1014.27 1014.94 1015.61 1016.27 1016.93 1017.58 1018.23 1018.90 1019.59 1020.29 1020.99 1021.66 1022.29 1022.84 1023.29 1023.64 1023.89 1024.04 1024.11 1024.13 1024.12 1024.09 1024.06 1024.02 1023.97 1023.89 1023.77 1023.59 1023.33 1023.01 1022.62 1022.19 1021.73 1021.27 1020.83 1020.42 1020.05 1019.72 1019.43 1019.16 1018.90 1018.64 1018.37
1015.00 1015.68 1016.36 1017.04 1017.72 1018.40 1019.09 1019.78 1020.49 1021.20 1021.90 1022.57 1023.18 1023.70 1024.14 1024.46 1024.68 1024.80 1024.84 1024.82 1024.77 1024.70 1024.63 1024.54 1024.45 1024.33 1024.17 1023.96 1023.68 1023.35 1022.97 1022.55 1022.10 1021.65 1021.21 1020.79 1020.40 1020.03 1019.68 1019.33 1018.98 1018.60 1018.20
Thickness
5744 5742 5741 5739 5741 5739 5737 5736 5736 5733 5733 5732 5733 5732 5731 5730 5730 5729 5723 5718 5716 5715 5714 5714 5713 5712 5711 5710 5710 5709 5709 5708 5708 5707 5707 5707 5706 5705 5705 5704 5703 5703 5702
5742 5741 5740 5738 5739 5738 5738 5736 5736 5733 5733 5733 5732 5731 5730 5730 5727 5726 5725 5719 5716 5715 5714 5713 5712 5711 5710 5709 5709 5708 5708 5707 5707 5706 5706 5705 5705 5704 5703 5703 5702 5701 5701
5739 5739 5740 5738 5738 5737 5734 5734 5734 5734 5733 5732 5731 5730 5729 5728 5727 5726 5725 5723 5720 5716 5714 5713 5712 5711 5710 5709 5708 5707 5707 5706 5706 5705 5704 5704 5703 5703 5702 5701 5701 5700 5699
5737 5737 5739 5739 5736 5736 5735 5734 5736 5734 5734 5733 5730 5730 5729 5727 5726 5725 5725 5722 5722 5720 5716 5713 5712 5711 5710 5709 5709 5708 5707 5706 5705 5704 5703 5703 5702 5701 5701 5700 5700 5699 5698
5736 5737 5737 5737 5735 5736 5735 5736 5735 5735 5733 5731 5731 5729 5730 5730 5727 5727 5725 5724 5722 5720 5719 5715 5713 5712 5710 5710 5709 5708 5707 5706 5705 5704 5703 5702 5701 5701 5700 5700 5699 5698 5698
5736 5736 5736 5735 5736 5736 5735 5734 5733 5732 5733 5731 5733 5732 5731 5731 5730 5729 5728 5727 5724 5722 5721 5719 5716 5714 5712 5711 5710 5709 5708 5706 5705 5705 5703 5702 5701 5701 5700 5699 5699 5698 5697
5735 5735 5737 5734 5734 5735 5734 5734 5733 5731 5731 5732 5730 5728 5730 5732 5732 5730 5730 5729 5727 5725 5723 5720 5719 5718 5716 5713 5711 5710 5708 5707 5706 5705 5704 5703 5702 5701 5700 5700 5699 5698 5697
5734 5735 5734 5735 5735 5734 5732 5733 5732 5733 5733 5732 5729 5726 5723 5725 5728 5734 5731 5729 5729 5727 5725 5724 5722 5719 5718 5718 5715 5712 5710 5708 5707 5706 5705 5704 5703 5702 5701 5700 5699 5699 5698
5734 5735 5734 5735 5734 5735 5734 5732 5732 5730 5730 5732 5733 5728 5723 5721 5727 5732 5731 5731 5729 5728 5728 5726 5724 5722 5719 5719 5718 5714 5711 5710 5708 5707 5706 5705 5703 5702 5701 5700 5700 5699 5698
5734 5734 5733 5733 5733 5735 5733 5733 5734 5733 5730 5730 5731 5730 5730 5730 5724 5725 5730 5733 5731 5728 5729 5729 5727 5724 5721 5720 5718 5715 5713 5711 5709 5708 5707 5705 5704 5703 5702 5701 5700 5700 5699
5734 5734 5733 5733 5732 5734 5733 5733 5732 5732 5732 5731 5730 5730 5729 5728 5728 5725 5722 5727 5730 5732 5730 5728 5727 5726 5723 5721 5720 5718 5714 5712 5710 5708 5707 5706 5705 5704 5702 5701 5700 5699 5699
5734 5734 5733 5732 5732 5733 5731 5731 5731 5730 5731 5730 5730 5731 5729 5728 5727 5727 5724 5723 5725 5730 5730 5730 5728 5727 5725 5723 5721 5718 5714 5712 5710 5708 5707 5706 5705 5703 5702 5701 5700 5699 5698
5734 5733 5734 5732 5732 5731 5730 5730 5729 5731 5729 5727 5727 5729 5731 5731 5731 5729 5725 5724 5723 5727 5727 5728 5728 5727 5725 5723 5721 5716 5713 5711 5709 5708 5706 5705 5704 5702 5701 5700 5699 5698 5697
5736 5734 5733 5732 5731 5730 5730 5729 5730 5729 5727 5726 5727 5726 5726 5728 5729 5728 5725 5722 5719 5721 5723 5724 5727 5725 5723 5721 5718 5714 5713 5711 5708 5707 5705 5704 5702 5701 5700 5698 5697 5696 5695
5735 5734 5733 5731 5730 5729 5728 5727 5728 5726 5725 5725 5725 5723 5724 5726 5725 5725 5725 5722 5716 5712 5715 5720 5722 5722 5719 5717 5714 5713 5712 5709 5706 5704 5703 5701 5700 5698 5697 5696 5694 5693 5692
5734 5733 5732 5730 5729 5728 5727 5725 5725 5724 5722 5721 5721 5720 5719 5722 5722 5721 5720 5719 5716 5712 5710 5717 5716 5718 5714 5714 5710 5709 5708 5705 5702 5701 5699 5698 5696 5695 5693 5692 5691 5689 5688
5731 5731 5730 5728 5727 5726 5725 5723 5723 5721 5718 5717 5716 5715 5713 5714 5715 5715 5714 5713 5712 5710 5705 5710 5712 5711 5706 5704 5705 5703 5703 5701 5700 5696 5693 5692 5691 5689 5688 5687 5685 5684 5683
5729 5728 5727 5726 5725 5724 5722 5720 5718 5717 5715 5713 5711 5710 5709 5709 5706 5706 5705 5705 5705 5704 5701 5699 5702 5702 5698 5697 5696 5695 5696 5697 5694 5689 5687 5685 5683 5682 5681 5679 5678 5677 5675
5727 5726 5724 5723 5722 5720 5718 5716 5715 5712 5710 5708 5706 5704 5702 5701 5698 5699 5697 5698 5697 5698 5695 5693 5692 5692 5691 5689 5687 5687 5688 5684 5685 5683 5679 5677 5674 5673 5671 5670 5669 5667 5666
5723 5721 5720 5718 5717 5715 5712 5710 5707 5705 5702 5700 5698 5696 5695 5693 5691 5690 5689 5688 5688 5687 5686 5683 5682 5681 5679 5678 5676 5675 5675 5674 5672 5673 5670 5668 5665 5663 5662 5660 5658 5656 5655
5718 5716 5714 5712 5710 5708 5706 5703 5700 5697 5694 5691 5688 5686 5684 5682 5680 5680 5681 5679 5678 5677 5675 5673 5671 5669 5666 5664 5663 5662 5662 5661 5660 5659 5658 5657 5656 5655 5652 5649 5646 5643 5642
5711 5709 5706 5704 5702 5700 5696 5694 5692 5690 5687 5683 5679 5676 5673 5671 5668 5666 5664 5663 5663 5664 5664 5661 5658 5654 5649 5649 5648 5649 5649 5648 5646 5646 5644 5644 5643 5641 5639 5637 5632 5629 5627
5702 5699 5697 5695 5691 5687 5686 5684 5682 5681 5677 5672 5669 5666 5664 5660 5658 5656 5652 5650 5648 5646 5646 5646 5643 5639 5637 5634 5633 5635 5633 5631 5628 5629 5628 5629 5629 5627 5624 5622 5618 5614 5612
5693 5689 5686 5683 5680 5676 5674 5673 5671 5668 5663 5660 5657 5654 5651 5648 5645 5644 5642 5639 5635 5632 5631 5630 5626 5623 5620 5618 5618 5619 5618 5617 5616 5615 5612 5612 5612 5611 5610 5606 5602 5599 5596
5683 5679 5675 5672 5669 5665 5663 5662 5660 5656 5652 5648 5644 5640 5638 5635 5630 5629 5629 5626 5622 5617 5613 5610 5607 5605 5603 5602 5601 5605 5604 5605 5605 5603 5598 5595 5595 5595 5594 5592 5589 5585 5581
5673 5669 5664 5661 5658 5654 5651 5650 5648 5646 5641 5636 5631 5627 5622 5620 5617 5616 5615 5612 5609 5606 5603 5600 5596 5594 5592 5590 5587 5586 5586 5587 5587 5585 5581 5575 5576 5575 5577 5577 5573 5569 5567